Content
SEND FEEDBACK

Daily
Averages
Monthly
Summary
United States of America

WRIGHTSVILLE BEACH, NORTH CAROLINA


Home > North America > United States > North Carolina
Elevation: 25 feet     Latitude: 34 16N     Longitude: 077 54W

WEATHER
 
SELECT A DAY
Number of Records: 213,178;   Date Range: 1/1/95 - 11/22/14
 
SHARE

PRINT THIS DATA

[ ← Previous Day ]
WEATHER ALMANAC - SEPTEMBER 18, 2013
[ Next Day → ]
[ °C ]   °F
Weather ElementAverageHighLow
Temperature67.2 °F80.1 °F (2:53 pm)55.9 °F (6:53 am)
Dewpoint56.6 °F62.1 °F (8:53 pm)51.1 °F (5:53 am)
Humidity70.2 %87 % (9:53 pm)48 % (2:53 pm)
Barometer30.20 in30.24 in (1:53 am)30.15 in (4:53 pm)
Wind Speed7.2 mph13.8 mph (9:53 am)
Wind Gust18.4 mph (9:53 am)
Weather ElementAverage
Visibility10 mi
Wind DirectionENE (60 °)

Weather ElementTotal
Precipitation---
Cooling Degree Days3 (Base 65)
Growing Degree Days18 (Base 50)
Averaged from 23 records on September 18, 2013
WEATHER CONDITIONS BREAKOUT
WIND DIRECTION BREAKOUT
WEATHER BY HOUR - SEPTEMBER 18, 2013
[ °C ]   °F
Local TimeTemperatureDewpointHumidityBarometerVisibilityWind DirectionWind SpeedGust SpeedPrecipitationEventsConditions
1:53 AM59.0 °F53.1 °F81 %30.24 in10.0 miNNE (20°)8.1 mphClear
2:53 AM59.0 °F52.0 °F78 %30.22 in10.0 miNNE (20°)8.1 mphPartly Cloudy
3:53 AM59.0 °F52.0 °F78 %30.22 in10.0 miNNE (20°)9.2 mphMostly Cloudy
4:53 AM57.9 °F52.0 °F81 %30.22 in10.0 miNNE (20°)10.4 mphMostly Cloudy
5:53 AM57.0 °F51.1 °F81 %30.21 in10.0 miNNE (20°)8.1 mphMostly Cloudy
6:53 AM55.9 °F51.1 °F84 %30.23 in10.0 miNorth (10°)5.8 mphPartly Cloudy
7:53 AM57.0 °F52.0 °F83 %30.23 in10.0 miNorth (360°)8.1 mphClear
8:53 AM62.1 °F53.1 °F72 %30.23 in10.0 miNNE (20°)11.5 mphOvercast
9:53 AM66.9 °F54.0 °F63 %30.24 in10.0 miNNE (30°)13.8 mph18.4 mphClear
10:53 AM71.1 °F55.9 °F59 %30.24 in10.0 miNorth (10°)9.2 mphClear
11:53 AM75.0 °F57.9 °F55 %30.22 in10.0 miNE (50°)8.1 mphPartly Cloudy
12:53 PM77.0 °F59.0 °F54 %30.21 in10.0 miNNE (30°)5.8 mphOvercast
1:53 PM78.1 °F57.9 °F50 %30.19 in10.0 miNorth (10°)9.2 mphScattered Clouds
2:53 PM80.1 °F59.0 °F48 %30.17 in10.0 miNNW (340°)8.1 mphOvercast
3:53 PM77.0 °F57.9 °F52 %30.16 in10.0 miEast (100°)4.6 mphOvercast
4:53 PM77.0 °F60.1 °F56 %30.15 in10.0 miEast (100°)5.8 mphOvercast
5:53 PM75.0 °F60.1 °F60 %30.15 in10.0 miENE (60°)5.8 mphMostly Cloudy
6:53 PM72.0 °F61.0 °F68 %30.15 in10.0 miENE (60°)4.6 mphMostly Cloudy
7:53 PM69.1 °F61.0 °F75 %30.15 in10.0 miCalmClear
8:53 PM66.9 °F62.1 °F84 %30.16 in10.0 miNNE (20°)3.5 mphMostly Cloudy
9:53 PM66.0 °F62.1 °F87 %30.17 in10.0 miNNE (30°)4.6 mphOvercast
10:53 PM64.9 °F59.0 °F81 %30.17 in10.0 miNNE (20°)6.9 mphClear
11:53 PM63.0 °F57.9 °F84 %30.17 in10.0 miNNE (30°)6.9 mphClear
Hourly data recorded from KILM, located miles away from Wrightsville Beach, North Carolina







STORIES FROM OUR PARTNERS